Location: Newark
(36.0797°N, 3.9744°E)
Time: 15:42:39
(UTC+00:00)

Vanguard 3 - Visible Passes

Search period start: 10 December 2019 00:00
Search period end: 20 December 2019 00:00
Orbit: 508 x 3263 km, 33.3° (Epoch: 10 December)

Date Brightness Start Highest point End Pass type
(mag) Time Alt. Az. Time Alt. Az. Time Alt. Az.
10 Dec 9.8 06:11:21 10° SSW 06:17:00 32° SE 06:26:07 10° E visible
11 Dec 10.0 05:00:32 10° SSE 05:03:48 15° SE 05:07:58 10° E visible
12 Dec 9.5 05:55:24 10° SSW 06:00:38 35° SE 06:09:08 10° E visible
13 Dec 9.6 04:44:12 10° S 04:47:26 16° SE 04:51:38 10° E visible
14 Dec 9.0 05:39:31 10° SW 05:44:23 37° SSE 05:52:14 10° E visible
15 Dec 9.3 04:28:00 10° S 04:31:11 18° SE 04:35:19 10° E visible
16 Dec 8.6 05:23:43 10° SW 05:28:13 39° SSE 05:35:26 10° E visible
17 Dec 8.9 04:13:39 17° SSE 04:14:59 19° SE 04:19:03 10° E visible
18 Dec 8.1 05:08:51 16° SW 05:12:10 42° SSE 05:18:44 10° E visible
19 Dec 8.8 03:59:24 21° SE 03:59:24 21° SE 04:02:52 10° E visible
19 Dec 7.8 06:04:59 10° WSW 06:09:49 65° S 06:18:06 10° E visible
